Time,TemperatureF,DewpointF,PressureIn,WindDirection,WindDirectionDegrees,WindSpeedMPH,WindSpeedGustMPH,Humidity,HourlyPrecipIn,Conditions,Clouds,dailyrainin,SolarRadiationWatts/m^2,SoftwareType,DateUTC
2013-12-22 00:03:00,45.3,41.9,29.85,SSW,211,15.6,21.9,88,0.00,RA,,0.00,0.0,WeatherDisplay:10.37,2013-12-21 23:03:00,
2013-12-22 00:08:00,45.4,42.0,29.85,South,180,15.9,24.2,88,0.00,RA,,0.00,0.0,WeatherDisplay:10.37,2013-12-21 23:08:00,
2013-12-22 00:13:00,45.4,42.0,29.84,South,169,17.1,20.7,88,0.00,RA,,0.00,0.0,WeatherDisplay:10.37,2013-12-21 23:13:00,
2013-12-22 00:18:00,45.5,42.1,29.85,South,180,15.4,24.2,88,0.00,RA,,0.00,0.0,WeatherDisplay:10.37,2013-12-21 23:18:00,
2013-12-22 00:23:00,45.6,42.2,29.85,SSW,208,19.5,27.6,88,0.00,RA,,0.00,0.0,WeatherDisplay:10.37,2013-12-21 23:23:00,
2013-12-22 00:28:00,45.6,41.9,29.84,SSW,195,15.5,20.7,87,0.00,OVC,,0.00,0.0,WeatherDisplay:10.37,2013-12-21 23:28:00,
2013-12-22 00:33:00,45.6,41.9,29.84,SW,222,14.9,27.6,87,0.00,OVC,,0.00,0.0,WeatherDisplay:10.37,2013-12-21 23:33:00,
2013-12-22 00:38:00,45.6,41.9,29.84,South,181,16.9,24.2,87,0.00,OVC,,0.00,0.0,WeatherDisplay:10.37,2013-12-21 23:38:00,
2013-12-22 00:43:00,45.5,41.8,29.84,SSW,202,15.1,19.6,87,0.00,OVC,,0.00,0.0,WeatherDisplay:10.37,2013-12-21 23:43:00,
2013-12-22 00:48:00,45.5,42.1,29.84,WSW,244,15.6,24.2,88,0.00,OVC,,0.00,0.0,WeatherDisplay:10.37,2013-12-21 23:48:00,
2013-12-22 00:53:00,45.5,42.1,29.84,SSW,212,11.9,27.6,88,0.00,OVC,,0.00,0.0,WeatherDisplay:10.37,2013-12-21 23:53:00,
2013-12-22 00:58:00,45.6,42.2,29.84,SW,219,17.7,24.2,88,0.00,OVC,,0.00,0.0,WeatherDisplay:10.37,2013-12-21 23:58:00,
2013-12-22 01:03:00,45.6,42.2,29.84,SSW,198,18.0,31.1,88,0.00,-DZ,,0.00,0.0,WeatherDisplay:10.37,2013-12-22 00:03:00,
2013-12-22 01:08:00,45.6,42.2,29.84,SW,234,12.4,23.0,88,0.00,-DZ,,0.00,0.0,WeatherDisplay:10.37,2013-12-22 00:08:00,
2013-12-22 01:13:00,45.5,42.1,29.85,SW,234,16.3,24.2,88,0.00,-DZ,,0.00,0.0,WeatherDisplay:10.37,2013-12-22 00:13:00,
2013-12-22 01:18:00,45.4,42.0,29.85,SW,221,10.1,17.3,88,0.00,-DZ,,0.00,0.0,WeatherDisplay:10.37,2013-12-22 00:18:00,
2013-12-22 01:23:00,45.3,41.9,29.85,SSW,213,10.4,22.0,88,0.00,-DZ,,0.00,0.0,WeatherDisplay:10.37,2013-12-22 00:23:00,
2013-12-22 01:28:00,45.2,42.1,29.85,SW,217,15.9,25.0,89,0.00,-DZ,,0.00,0.0,WeatherDisplay:10.37,2013-12-22 00:28:00,
2013-12-22 01:33:00,45.0,41.9,29.85,SSW,207,9.4,19.6,89,0.00,-DZ,,0.00,0.0,WeatherDisplay:10.37,2013-12-22 00:33:00,
2013-12-22 01:38:00,45.0,42.2,29.85,WSW,240,13.3,24.2,90,0.00,-DZ,,0.00,0.0,WeatherDisplay:10.37,2013-12-22 00:38:00,
2013-12-22 01:43:00,44.9,42.1,29.85,SSW,211,13.7,19.6,90,0.00,-DZ,,0.00,0.0,WeatherDisplay:10.37,2013-12-22 00:43:00,
2013-12-22 01:48:00,44.9,42.1,29.86,SSW,204,4.4,10.0,90,0.00,-DZ,,0.00,0.0,WeatherDisplay:10.37,2013-12-22 00:48:00,
2013-12-22 01:53:00,44.8,42.0,29.86,SW,221,9.2,17.3,90,0.00,-DZ,,0.00,0.0,WeatherDisplay:10.37,2013-12-22 00:53:00,
2013-12-22 01:58:00,44.8,42.3,29.86,SSW,209,10.9,13.8,91,0.00,-DZ,,0.00,0.0,WeatherDisplay:10.37,2013-12-22 00:58:00,
2013-12-22 02:03:00,44.8,42.3,29.86,SW,217,9.6,16.1,91,0.00,-RA,,0.00,0.0,WeatherDisplay:10.37,2013-12-22 01:03:00,
2013-12-22 02:08:00,44.7,42.2,29.86,SW,225,8.9,13.8,91,0.00,-RA,,0.00,0.0,WeatherDisplay:10.37,2013-12-22 01:08:00,
2013-12-22 02:13:00,44.7,42.2,29.86,SSW,209,11.8,24.2,91,0.00,-RA,,0.00,0.0,WeatherDisplay:10.37,2013-12-22 01:13:00,
2013-12-22 02:18:00,44.8,42.3,29.86,SSW,213,10.5,20.7,91,0.00,-RA,,0.00,0.0,WeatherDisplay:10.37,2013-12-22 01:18:00,
2013-12-22 02:23:00,44.9,42.4,29.86,SW,230,11.0,23.0,91,0.00,-RA,,0.00,0.0,WeatherDisplay:10.37,2013-12-22 01:23:00,
2013-12-22 02:28:00,44.9,42.4,29.86,South,180,12.6,20.7,91,0.00,-RA,,0.00,0.0,WeatherDisplay:10.37,2013-12-22 01:28:00,
2013-12-22 02:33:00,44.8,42.3,29.86,SW,219,12.8,16.1,91,0.00,OVC,,0.00,0.0,WeatherDisplay:10.37,2013-12-22 01:33:00,
2013-12-22 02:38:00,44.7,42.2,29.86,SSW,210,12.4,18.4,91,0.00,OVC,,0.00,0.0,WeatherDisplay:10.37,2013-12-22 01:38:00,
2013-12-22 02:43:00,44.7,42.2,29.86,SSE,158,13.0,20.7,91,0.00,OVC,,0.00,0.0,WeatherDisplay:10.37,2013-12-22 01:43:00,
2013-12-22 02:48:00,44.7,42.2,29.86,SSW,203,11.8,13.8,91,0.00,OVC,,0.00,0.0,WeatherDisplay:10.37,2013-12-22 01:48:00,
2013-12-22 02:53:00,44.7,42.2,29.86,SSW,210,12.1,17.3,91,0.00,OVC,,0.00,0.0,WeatherDisplay:10.37,2013-12-22 01:53:00,
2013-12-22 02:58:00,44.6,42.1,29.87,SSW,211,14.0,18.4,91,0.00,OVC,,0.00,0.0,WeatherDisplay:10.37,2013-12-22 01:58:00,
2013-12-22 03:03:00,44.6,42.1,29.86,SW,224,17.7,27.6,91,0.00,FEW,,0.00,0.0,WeatherDisplay:10.37,2013-12-22 02:03:00,
2013-12-22 03:08:00,44.7,42.2,29.87,SW,223,14.1,24.2,91,0.00,FEW,,0.00,0.0,WeatherDisplay:10.37,2013-12-22 02:08:00,
2013-12-22 03:13:00,44.7,42.2,29.87,SW,215,9.6,19.6,91,0.00,FEW,,0.00,0.0,WeatherDisplay:10.37,2013-12-22 02:13:00,
2013-12-22 03:18:00,44.7,42.2,29.87,SW,223,11.5,20.7,91,0.00,FEW,,0.00,0.0,WeatherDisplay:10.37,2013-12-22 02:18:00,
2013-12-22 03:23:00,44.7,42.2,29.88,SW,224,11.2,16.1,91,0.00,FEW,,0.00,0.0,WeatherDisplay:10.37,2013-12-22 02:23:00,
2013-12-22 03:28:00,44.6,42.1,29.88,SW,227,8.9,18.4,91,0.00,FEW,,0.00,0.0,WeatherDisplay:10.37,2013-12-22 02:28:00,
2013-12-22 03:33:00,44.5,42.0,29.88,SW,218,9.5,17.3,91,0.00,FEW,,0.00,0.0,WeatherDisplay:10.37,2013-12-22 02:33:00,
2013-12-22 03:38:00,44.5,42.0,29.88,South,181,13.8,19.6,91,0.00,FEW,,0.00,0.0,WeatherDisplay:10.37,2013-12-22 02:38:00,
2013-12-22 03:43:00,44.4,42.2,29.88,SSW,203,11.1,24.2,92,0.00,FEW,,0.00,0.0,WeatherDisplay:10.37,2013-12-22 02:43:00,
2013-12-22 03:48:00,44.4,42.2,29.88,SW,233,11.5,18.4,92,0.00,FEW,,0.00,0.0,WeatherDisplay:10.37,2013-12-22 02:48:00,
2013-12-22 03:53:00,44.4,42.2,29.88,SSW,201,12.0,19.6,92,0.00,FEW,,0.00,0.0,WeatherDisplay:10.37,2013-12-22 02:53:00,
2013-12-22 03:58:00,44.5,42.3,29.88,SW,221,9.4,18.4,92,0.00,FEW,,0.00,0.0,WeatherDisplay:10.37,2013-12-22 02:58:00,
2013-12-22 04:03:00,44.5,42.3,29.88,SSW,209,6.4,13.8,92,0.00,FEW,,0.00,0.0,WeatherDisplay:10.37,2013-12-22 03:03:00,
2013-12-22 04:08:00,44.6,42.4,29.88,SSW,213,11.1,17.3,92,0.00,FEW,,0.00,0.0,WeatherDisplay:10.37,2013-12-22 03:08:00,
2013-12-22 04:13:00,44.7,42.5,29.88,SSW,203,11.6,19.6,92,0.00,FEW,,0.00,0.0,WeatherDisplay:10.37,2013-12-22 03:13:00,
2013-12-22 04:18:00,44.8,42.6,29.88,SW,232,10.7,16.1,92,0.00,FEW,,0.00,0.0,WeatherDisplay:10.37,2013-12-22 03:18:00,
2013-12-22 04:23:00,44.8,42.6,29.88,SW,218,12.3,24.2,92,0.00,FEW,,0.00,0.0,WeatherDisplay:10.37,2013-12-22 03:23:00,
2013-12-22 04:28:00,44.9,42.7,29.88,SW,216,11.5,20.7,92,0.00,FEW,,0.00,0.0,WeatherDisplay:10.37,2013-12-22 03:28:00,
2013-12-22 04:33:00,44.9,42.7,29.88,SSW,208,9.9,19.6,92,0.00,FEW,,0.00,0.0,WeatherDisplay:10.37,2013-12-22 03:33:00,
2013-12-22 04:38:00,44.9,42.7,29.88,South,191,11.0,18.4,92,0.00,FEW,,0.00,0.0,WeatherDisplay:10.37,2013-12-22 03:38:00,
2013-12-22 04:43:00,44.9,42.7,29.88,SSW,211,13.4,19.6,92,0.00,BKN,,0.00,0.0,WeatherDisplay:10.37,2013-12-22 03:43:00,
2013-12-22 04:48:00,44.9,42.7,29.88,SW,219,6.6,11.5,92,0.00,BKN,,0.00,0.0,WeatherDisplay:10.37,2013-12-22 03:48:00,
2013-12-22 04:53:00,44.9,42.7,29.88,SSW,211,6.9,9.2,92,0.00,BKN,,0.00,0.0,WeatherDisplay:10.37,2013-12-22 03:53:00,
2013-12-22 04:58:00,44.8,42.6,29.88,South,186,10.2,16.1,92,0.00,BKN,,0.00,0.0,WeatherDisplay:10.37,2013-12-22 03:58:00,
2013-12-22 05:03:00,44.8,42.6,29.88,SW,232,8.3,11.5,92,0.00,BKN,,0.00,0.0,WeatherDisplay:10.37,2013-12-22 04:03:00,
2013-12-22 05:08:00,44.9,42.7,29.88,SSW,205,9.3,15.0,92,0.00,BKN,,0.00,0.0,WeatherDisplay:10.37,2013-12-22 04:08:00,
2013-12-22 05:13:00,44.9,42.7,29.88,SW,220,6.7,15.0,92,0.00,BKN,,0.00,0.0,WeatherDisplay:10.37,2013-12-22 04:13:00,
2013-12-22 05:18:00,44.9,42.7,29.88,SW,224,7.6,11.5,92,0.00,BKN,,0.00,0.0,WeatherDisplay:10.37,2013-12-22 04:18:00,
2013-12-22 05:23:00,44.9,42.7,29.88,SSW,212,6.3,10.4,92,0.00,BKN,,0.00,0.0,WeatherDisplay:10.37,2013-12-22 04:23:00,
2013-12-22 05:28:00,44.9,42.7,29.88,SSW,208,9.9,11.5,92,0.00,BKN,,0.00,0.0,WeatherDisplay:10.37,2013-12-22 04:28:00,
2013-12-22 05:33:00,44.9,42.7,29.88,SSW,203,8.5,13.8,92,0.00,FEW,,0.00,0.0,WeatherDisplay:10.37,2013-12-22 04:33:00,
2013-12-22 05:38:00,44.9,42.7,29.88,SSW,198,9.2,9.2,92,0.00,FEW,,0.00,0.0,WeatherDisplay:10.37,2013-12-22 04:38:00,
2013-12-22 05:43:00,44.9,42.7,29.88,SW,214,10.4,15.0,92,0.00,FEW,,0.00,0.0,WeatherDisplay:10.37,2013-12-22 04:43:00,
2013-12-22 05:48:00,44.9,42.7,29.88,SSW,203,8.1,17.3,92,0.00,FEW,,0.00,0.0,WeatherDisplay:10.37,2013-12-22 04:48:00,
2013-12-22 05:53:00,44.9,42.7,29.88,SW,221,11.2,15.0,92,0.00,FEW,,0.00,0.0,WeatherDisplay:10.37,2013-12-22 04:53:00,
2013-12-22 05:58:00,44.8,42.6,29.88,SSW,200,10.5,15.0,92,0.00,FEW,,0.00,0.0,WeatherDisplay:10.37,2013-12-22 04:58:00,
2013-12-22 06:01:00,44.8,42.6,29.87,SSW,213,10.8,18.4,92,0.00,FEW,,0.00,0.0,WeatherDisplay:10.37,2013-12-22 05:01:00,
2013-12-22 06:06:00,44.7,42.5,29.88,SW,215,10.5,17.3,92,0.00,SCT,,0.00,0.0,WeatherDisplay:10.37,2013-12-22 05:06:00,
2013-12-22 06:11:00,44.7,42.8,29.88,SW,225,7.1,10.4,93,0.00,SCT,,0.00,0.0,WeatherDisplay:10.37,2013-12-22 05:11:00,
2013-12-22 06:16:00,44.7,42.8,29.88,SSW,209,12.7,20.0,93,0.00,SCT,,0.00,0.0,WeatherDisplay:10.37,2013-12-22 05:16:00,
2013-12-22 06:21:00,44.8,42.9,29.88,SSW,198,8.7,18.4,93,0.00,SCT,,0.00,0.0,WeatherDisplay:10.37,2013-12-22 05:21:00,
2013-12-22 06:26:00,44.8,42.9,29.87,SSW,207,11.0,17.3,93,0.00,SCT,,0.00,0.0,WeatherDisplay:10.37,2013-12-22 05:26:00,
2013-12-22 06:31:00,44.8,42.9,29.87,WSW,238,11.9,19.6,93,0.00,SCT,,0.00,0.0,WeatherDisplay:10.37,2013-12-22 05:31:00,
2013-12-22 06:36:00,44.9,43.0,29.87,SW,229,10.3,18.4,93,0.00,SCT,,0.00,0.0,WeatherDisplay:10.37,2013-12-22 05:36:00,
2013-12-22 06:41:00,44.9,43.0,29.87,SW,224,7.6,17.3,93,0.00,BKN,,0.00,0.0,WeatherDisplay:10.37,2013-12-22 05:41:00,
2013-12-22 06:46:00,44.9,43.0,29.87,SW,226,14.9,23.0,93,0.00,BKN,,0.00,0.0,WeatherDisplay:10.37,2013-12-22 05:46:00,
2013-12-22 06:51:00,44.9,43.0,29.87,SSW,203,11.7,17.3,93,0.00,BKN,,0.00,0.0,WeatherDisplay:10.37,2013-12-22 05:51:00,
2013-12-22 06:56:00,45.0,43.1,29.86,SW,217,13.5,19.6,93,0.00,BKN,,0.00,0.0,WeatherDisplay:10.37,2013-12-22 05:56:00,
2013-12-22 07:01:00,45.0,43.1,29.86,SSW,201,13.1,17.3,93,0.00,BKN,,0.00,0.0,WeatherDisplay:10.37,2013-12-22 06:01:00,
2013-12-22 07:06:00,44.9,43.0,29.86,SSW,213,13.1,18.4,93,0.01,RA,,0.01,0.0,WeatherDisplay:10.37,2013-12-22 06:06:00,
2013-12-22 07:11:00,45.0,43.1,29.86,SW,236,13.5,24.2,93,0.01,RA,,0.01,0.0,WeatherDisplay:10.37,2013-12-22 06:11:00,
2013-12-22 07:16:00,45.1,43.2,29.86,SSW,198,9.6,15.0,93,0.01,RA,,0.01,0.0,WeatherDisplay:10.37,2013-12-22 06:16:00,
2013-12-22 07:21:00,45.1,43.2,29.86,SW,220,12.6,18.4,93,0.01,RA,,0.01,0.0,WeatherDisplay:10.37,2013-12-22 06:21:00,
2013-12-22 07:26:00,45.1,43.2,29.86,SW,218,12.3,17.3,93,0.01,RA,,0.01,0.0,WeatherDisplay:10.37,2013-12-22 06:26:00,
2013-12-22 07:31:00,45.2,43.3,29.86,SSW,212,11.0,15.0,93,0.01,BKN,,0.01,0.0,WeatherDisplay:10.37,2013-12-22 06:31:00,
2013-12-22 07:36:00,45.2,43.3,29.85,SW,225,10.4,14.0,93,0.01,BKN,,0.01,0.0,WeatherDisplay:10.37,2013-12-22 06:36:00,
2013-12-22 07:41:00,45.3,43.4,29.85,SW,221,13.6,19.6,93,0.01,OVC,,0.01,0.0,WeatherDisplay:10.37,2013-12-22 06:41:00,
2013-12-22 07:46:00,45.3,43.4,29.85,SSW,210,14.7,19.6,93,0.01,OVC,,0.01,0.0,WeatherDisplay:10.37,2013-12-22 06:46:00,
2013-12-22 07:51:00,45.3,43.4,29.85,South,173,10.9,19.6,93,0.01,OVC,,0.01,0.0,WeatherDisplay:10.37,2013-12-22 06:51:00,
2013-12-22 07:56:00,45.4,43.5,29.85,SW,217,12.6,19.6,93,0.01,OVC,,0.01,0.0,WeatherDisplay:10.37,2013-12-22 06:56:00,
2013-12-22 07:59:00,45.4,43.5,29.85,SW,235,9.6,16.1,93,0.01,OVC,,0.01,0.0,WeatherDisplay:10.37,2013-12-22 06:59:00,
2013-12-22 08:04:00,45.4,43.5,29.85,SSW,210,11.2,13.8,93,0.00,OVC,,0.01,0.0,WeatherDisplay:10.37,2013-12-22 07:04:00,
2013-12-22 08:09:00,45.5,43.6,29.85,SSW,200,14.3,21.9,93,0.00,OVC,,0.01,0.0,WeatherDisplay:10.37,2013-12-22 07:09:00,
2013-12-22 08:14:00,45.6,43.7,29.85,SW,215,12.7,20.7,93,0.00,OVC,,0.01,0.0,WeatherDisplay:10.37,2013-12-22 07:14:00,
2013-12-22 08:19:00,45.6,43.7,29.85,SSW,203,13.2,19.6,93,0.00,OVC,,0.01,0.0,WeatherDisplay:10.37,2013-12-22 07:19:00,
2013-12-22 08:24:00,45.5,43.6,29.85,SSW,200,10.9,19.6,93,0.00,OVC,,0.01,0.0,WeatherDisplay:10.37,2013-12-22 07:24:00,
2013-12-22 08:29:00,45.5,43.6,29.86,SSW,212,10.2,17.3,93,0.00,OVC,,0.01,0.0,WeatherDisplay:10.37,2013-12-22 07:29:00,
2013-12-22 08:34:00,45.6,43.7,29.86,South,188,16.0,26.5,93,0.00,BKN,,0.01,0.0,WeatherDisplay:10.37,2013-12-22 07:34:00,
2013-12-22 08:39:00,45.6,43.7,29.86,SW,223,10.4,16.1,93,0.00,BKN,,0.01,0.0,WeatherDisplay:10.37,2013-12-22 07:39:00,
2013-12-22 08:44:00,45.6,43.7,29.86,South,178,10.0,20.7,93,0.00,BKN,,0.01,0.0,WeatherDisplay:10.37,2013-12-22 07:44:00,
2013-12-22 08:49:00,45.7,43.8,29.85,SSW,205,13.1,19.6,93,0.00,BKN,,0.01,0.0,WeatherDisplay:10.37,2013-12-22 07:49:00,
2013-12-22 08:54:00,45.7,43.8,29.85,SSW,209,11.6,19.6,93,0.00,BKN,,0.01,0.0,WeatherDisplay:10.37,2013-12-22 07:54:00,
2013-12-22 08:59:00,45.8,43.9,29.85,SSW,204,12.2,20.7,93,0.00,BKN,,0.01,0.0,WeatherDisplay:10.37,2013-12-22 07:59:00,
2013-12-22 09:04:00,45.9,44.0,29.84,SW,222,11.7,18.4,93,0.00,BKN,,0.01,0.0,WeatherDisplay:10.37,2013-12-22 08:04:00,
2013-12-22 09:09:00,46.0,44.1,29.84,SSW,213,12.8,19.6,93,0.00,BKN,,0.01,5.0,WeatherDisplay:10.37,2013-12-22 08:09:00,
2013-12-22 09:14:00,46.0,44.1,29.84,SW,225,16.3,24.2,93,0.00,BKN,,0.01,7.0,WeatherDisplay:10.37,2013-12-22 08:14:00,
2013-12-22 09:19:00,46.1,43.9,29.84,SSW,209,11.7,15.0,92,0.00,BKN,,0.01,9.0,WeatherDisplay:10.37,2013-12-22 08:19:00,
2013-12-22 09:24:00,46.2,44.0,29.84,SSW,203,14.6,21.9,92,0.00,BKN,,0.01,12.0,WeatherDisplay:10.37,2013-12-22 08:24:00,
2013-12-22 09:29:00,46.1,43.9,29.84,SSW,203,18.8,19.6,92,0.00,BKN,,0.01,14.0,WeatherDisplay:10.37,2013-12-22 08:29:00,
2013-12-22 09:34:00,46.1,43.9,29.84,SSW,204,12.6,13.0,92,0.00,BKN,,0.01,14.0,WeatherDisplay:10.37,2013-12-22 08:34:00,
2013-12-22 09:39:00,46.2,44.0,29.84,SSW,192,17.3,26.5,92,0.00,BKN,,0.01,18.0,WeatherDisplay:10.37,2013-12-22 08:39:00,
2013-12-22 09:44:00,46.3,44.1,29.84,SSW,211,11.4,19.6,92,0.00,BKN,,0.01,23.0,WeatherDisplay:10.37,2013-12-22 08:44:00,
2013-12-22 09:49:00,46.3,44.1,29.84,SSW,213,10.4,19.6,92,0.00,BKN,,0.01,25.0,WeatherDisplay:10.37,2013-12-22 08:49:00,
2013-12-22 09:54:00,46.4,44.2,29.84,SSW,196,13.6,20.7,92,0.00,BKN,,0.01,35.0,WeatherDisplay:10.37,2013-12-22 08:54:00,
2013-12-22 09:59:00,46.4,44.2,29.84,SW,225,10.6,19.0,92,0.00,BKN,,0.01,30.0,WeatherDisplay:10.37,2013-12-22 08:59:00,
2013-12-22 10:04:00,46.5,44.3,29.84,WSW,238,15.2,24.2,92,0.00,BKN,,0.01,30.0,WeatherDisplay:10.37,2013-12-22 09:04:00,
2013-12-22 10:09:00,46.6,44.4,29.84,SSW,211,10.4,19.6,92,0.00,BKN,,0.01,35.0,WeatherDisplay:10.37,2013-12-22 09:09:00,
2013-12-22 10:14:00,46.7,44.5,29.83,South,188,12.0,17.3,92,0.00,BKN,,0.01,39.0,WeatherDisplay:10.37,2013-12-22 09:14:00,
2013-12-22 10:19:00,46.7,44.5,29.83,SSW,207,12.8,20.7,92,0.00,BKN,,0.01,35.0,WeatherDisplay:10.37,2013-12-22 09:19:00,
2013-12-22 10:31:00,46.8,44.6,29.84,SSW,194,12.8,21.0,92,0.00,BKN,,0.01,37.0,WeatherDisplay:10.37,2013-12-22 09:31:00,
2013-12-22 10:36:00,47.1,44.9,29.83,SSW,195,14.1,19.6,92,0.00,BKN,,0.01,46.0,WeatherDisplay:10.37,2013-12-22 09:36:00,
2013-12-22 10:41:00,47.2,44.7,29.83,SW,218,11.6,19.6,91,0.00,BKN,,0.01,51.0,WeatherDisplay:10.37,2013-12-22 09:41:00,
2013-12-22 10:46:00,47.2,44.7,29.83,SW,215,14.6,23.0,91,0.00,BKN,,0.01,62.0,WeatherDisplay:10.37,2013-12-22 09:46:00,
2013-12-22 10:51:00,47.2,44.7,29.83,SSW,211,13.5,20.7,91,0.00,BKN,,0.01,65.0,WeatherDisplay:10.37,2013-12-22 09:51:00,
2013-12-22 10:56:00,47.3,44.8,29.83,SW,228,12.6,20.0,91,0.00,BKN,,0.01,67.0,WeatherDisplay:10.37,2013-12-22 09:56:00,
2013-12-22 11:01:00,47.3,44.8,29.83,SW,218,14.3,20.7,91,0.00,BKN,,0.01,40.0,WeatherDisplay:10.37,2013-12-22 10:01:00,
2013-12-22 11:06:00,47.4,44.9,29.83,SW,217,12.4,19.6,91,0.00,BKN,,0.01,32.0,WeatherDisplay:10.37,2013-12-22 10:06:00,
2013-12-22 11:11:00,47.5,45.0,29.83,South,180,10.5,21.9,91,0.00,BKN,,0.01,40.0,WeatherDisplay:10.37,2013-12-22 10:11:00,
2013-12-22 11:16:00,47.6,45.1,29.83,South,187,11.5,19.6,91,0.00,BKN,,0.01,30.0,WeatherDisplay:10.37,2013-12-22 10:16:00,
2013-12-22 11:21:00,47.7,45.2,29.82,SSW,209,13.5,21.9,91,0.00,BKN,,0.01,30.0,WeatherDisplay:10.37,2013-12-22 10:21:00,
2013-12-22 11:26:00,47.8,45.3,29.82,SSW,213,9.7,26.5,91,0.00,BKN,,0.01,32.0,WeatherDisplay:10.37,2013-12-22 10:26:00,
2013-12-22 11:31:00,47.8,45.3,29.81,SSW,213,8.4,16.1,91,0.00,BKN,,0.01,42.0,WeatherDisplay:10.37,2013-12-22 10:31:00,
2013-12-22 11:36:00,47.9,45.4,29.81,SW,219,15.8,23.0,91,0.00,BKN,,0.01,35.0,WeatherDisplay:10.37,2013-12-22 10:36:00,
2013-12-22 11:41:00,48.1,45.6,29.81,SSW,200,15.0,21.9,91,0.00,BKN,,0.01,47.0,WeatherDisplay:10.37,2013-12-22 10:41:00,
2013-12-22 11:46:00,48.2,45.4,29.81,SW,228,14.4,19.6,90,0.00,BKN,,0.01,53.0,WeatherDisplay:10.37,2013-12-22 10:46:00,
2013-12-22 11:51:00,48.3,45.5,29.80,SW,224,16.3,26.5,90,0.00,BKN,,0.01,107.0,WeatherDisplay:10.37,2013-12-22 10:51:00,
2013-12-22 11:56:00,48.5,45.7,29.80,SSW,199,14.4,24.2,90,0.00,BKN,,0.01,69.0,WeatherDisplay:10.37,2013-12-22 10:56:00,
2013-12-22 12:01:00,48.7,45.9,29.80,SW,222,13.3,17.3,90,0.00,BKN,,0.01,84.0,WeatherDisplay:10.37,2013-12-22 11:01:00,
2013-12-22 12:06:00,48.8,46.0,29.79,SW,218,19.5,32.2,90,0.00,BKN,,0.01,77.0,WeatherDisplay:10.37,2013-12-22 11:06:00,
2013-12-22 12:11:00,48.9,46.1,29.79,SSW,209,14.8,21.9,90,0.00,BKN,,0.01,84.0,WeatherDisplay:10.37,2013-12-22 11:11:00,
2013-12-22 12:16:00,48.9,45.8,29.79,SSW,213,12.1,21.9,89,0.00,BKN,,0.01,74.0,WeatherDisplay:10.37,2013-12-22 11:16:00,
2013-12-22 12:21:00,49.0,45.9,29.79,SSW,211,13.2,20.7,89,0.00,BKN,,0.01,54.0,WeatherDisplay:10.37,2013-12-22 11:21:00,
2013-12-22 12:26:00,49.0,45.9,29.78,SSW,202,9.2,19.6,89,0.00,BKN,,0.01,35.0,WeatherDisplay:10.37,2013-12-22 11:26:00,
2013-12-22 12:31:00,49.0,46.8,29.78,SW,226,14.2,22.0,92,0.00,OVC,,0.01,56.0,WeatherDisplay:10.37,2013-12-22 11:31:00,
2013-12-22 12:36:00,49.0,45.6,29.78,South,184,14.0,23.0,88,0.00,OVC,,0.01,49.0,WeatherDisplay:10.37,2013-12-22 11:36:00,
2013-12-22 12:41:00,49.1,45.4,29.77,SW,215,15.1,24.2,87,0.00,OVC,,0.01,40.0,WeatherDisplay:10.37,2013-12-22 11:41:00,
2013-12-22 12:46:00,49.2,45.5,29.77,South,188,14.2,26.5,87,0.00,OVC,,0.01,32.0,WeatherDisplay:10.37,2013-12-22 11:46:00,
2013-12-22 12:51:00,49.3,45.6,29.77,SW,215,11.2,26.5,87,0.00,OVC,,0.01,44.0,WeatherDisplay:10.37,2013-12-22 11:51:00,
2013-12-22 12:56:00,49.4,45.4,29.76,SSW,213,14.2,24.2,86,0.00,OVC,,0.01,39.0,WeatherDisplay:10.37,2013-12-22 11:56:00,
2013-12-22 13:01:00,49.5,45.5,29.76,South,183,10.7,21.9,86,0.00,OVC,,0.01,56.0,WeatherDisplay:10.37,2013-12-22 12:01:00,
2013-12-22 13:06:00,49.6,45.6,29.76,SW,218,15.0,23.0,86,0.00,OVC,,0.01,49.0,WeatherDisplay:10.37,2013-12-22 12:06:00,
2013-12-22 13:11:00,49.7,45.4,29.76,SW,217,13.8,20.7,85,0.00,OVC,,0.01,28.0,WeatherDisplay:10.37,2013-12-22 12:11:00,
2013-12-22 13:16:00,49.7,45.4,29.76,South,190,12.3,24.0,85,0.00,OVC,,0.01,23.0,WeatherDisplay:10.37,2013-12-22 12:16:00,
2013-12-22 13:21:00,49.7,45.4,29.76,SW,223,13.5,24.2,85,0.00,OVC,,0.01,30.0,WeatherDisplay:10.37,2013-12-22 12:21:00,
2013-12-22 13:26:00,49.7,45.7,29.76,SSW,192,17.6,24.2,86,0.00,OVC,,0.01,25.0,WeatherDisplay:10.37,2013-12-22 12:26:00,
2013-12-22 13:31:00,49.7,45.7,29.75,WSW,238,18.8,23.0,86,0.00,BKN,,0.01,25.0,WeatherDisplay:10.37,2013-12-22 12:31:00,
2013-12-22 13:36:00,49.7,45.7,29.76,SSW,199,15.0,20.7,86,0.00,BKN,,0.01,12.0,WeatherDisplay:10.37,2013-12-22 12:36:00,
2013-12-22 13:41:00,49.6,45.9,29.76,SW,228,14.9,19.6,87,0.00,BKN,,0.01,18.0,WeatherDisplay:10.37,2013-12-22 12:41:00,
2013-12-22 13:46:00,49.5,46.1,29.76,SSW,211,10.8,15.0,88,0.00,BKN,,0.01,18.0,WeatherDisplay:10.37,2013-12-22 12:46:00,
2013-12-22 13:51:00,49.3,45.9,29.76,SW,217,10.4,13.8,88,0.00,BKN,,0.01,28.0,WeatherDisplay:10.37,2013-12-22 12:51:00,
2013-12-22 13:56:00,49.1,46.0,29.76,SW,229,8.7,15.0,89,0.01,RA,,0.02,9.0,WeatherDisplay:10.37,2013-12-22 12:56:00,
2013-12-22 14:01:00,48.8,46.0,29.76,WSW,255,10.3,17.3,90,0.02,RA,,0.03,7.0,WeatherDisplay:10.37,2013-12-22 13:01:00,
2013-12-22 14:06:00,48.5,46.0,29.77,WSW,238,14.1,23.0,91,0.05,RA,,0.06,12.0,WeatherDisplay:10.37,2013-12-22 13:06:00,
2013-12-22 14:11:00,48.4,46.2,29.77,WSW,240,16.4,23.0,92,0.06,RA,,0.06,30.0,WeatherDisplay:10.37,2013-12-22 13:11:00,
2013-12-22 14:16:00,48.0,45.8,29.77,West,262,17.0,24.2,92,0.06,RA,,0.07,56.0,WeatherDisplay:10.37,2013-12-22 13:16:00,
2013-12-22 14:21:00,47.8,45.6,29.77,WSW,238,12.6,19.6,92,0.06,RA,,0.07,244.0,WeatherDisplay:10.37,2013-12-22 13:21:00,
2013-12-22 14:26:00,47.4,44.9,29.77,WSW,250,16.9,24.2,91,0.06,RA,,0.07,44.0,WeatherDisplay:10.37,2013-12-22 13:26:00,
2013-12-22 14:31:00,47.1,44.6,29.77,SW,236,14.2,18.4,91,0.06,RA,,0.07,39.0,WeatherDisplay:10.37,2013-12-22 13:31:00,
2013-12-22 14:36:00,46.7,43.9,29.77,SW,234,14.2,17.3,90,0.06,RA,,0.07,28.0,WeatherDisplay:10.37,2013-12-22 13:36:00,
2013-12-22 14:41:00,46.6,43.5,29.77,SW,235,9.5,14.0,89,0.06,BKN,,0.07,28.0,WeatherDisplay:10.37,2013-12-22 13:41:00,
2013-12-22 14:46:00,46.5,43.4,29.77,WSW,253,8.7,12.7,89,0.06,BKN,,0.07,18.0,WeatherDisplay:10.37,2013-12-22 13:46:00,
2013-12-22 14:51:00,46.5,43.1,29.77,SW,236,12.0,19.6,88,0.06,BKN,,0.07,16.0,WeatherDisplay:10.37,2013-12-22 13:51:00,
2013-12-22 14:56:00,46.6,43.2,29.77,SW,223,11.5,18.0,88,0.06,BKN,,0.07,16.0,WeatherDisplay:10.37,2013-12-22 13:56:00,
2013-12-22 15:01:00,46.7,43.3,29.77,SW,236,9.0,15.0,88,0.04,FEW,,0.07,26.0,WeatherDisplay:10.37,2013-12-22 14:01:00,
2013-12-22 15:06:00,46.6,43.2,29.78,WSW,245,11.9,18.4,88,0.02,RA,,0.08,18.0,WeatherDisplay:10.37,2013-12-22 14:06:00,
2013-12-22 15:11:00,46.6,43.5,29.77,WSW,242,13.8,19.6,89,0.02,RA,,0.08,12.0,WeatherDisplay:10.37,2013-12-22 14:11:00,
2013-12-22 15:16:00,46.6,43.5,29.77,SW,217,10.6,18.0,89,0.01,RA,,0.08,25.0,WeatherDisplay:10.37,2013-12-22 14:16:00,
2013-12-22 15:21:00,46.6,43.5,29.77,SW,217,10.8,16.1,89,0.01,RA,,0.08,56.0,WeatherDisplay:10.37,2013-12-22 14:21:00,
2013-12-22 15:26:00,46.6,43.5,29.77,SW,222,12.8,16.1,89,0.01,RA,,0.08,62.0,WeatherDisplay:10.37,2013-12-22 14:26:00,
2013-12-22 15:31:00,46.6,43.2,29.77,West,272,10.4,19.6,88,0.01,-RA,,0.08,25.0,WeatherDisplay:10.37,2013-12-22 14:31:00,
2013-12-22 15:36:00,46.6,43.2,29.78,WSW,238,12.5,20.7,88,0.01,-RA,,0.08,33.0,WeatherDisplay:10.37,2013-12-22 14:36:00,
2013-12-22 15:41:00,46.5,43.1,29.78,WSW,242,12.6,19.6,88,0.01,-RA,,0.08,35.0,WeatherDisplay:10.37,2013-12-22 14:41:00,
2013-12-22 15:46:00,46.5,43.1,29.78,WSW,244,11.3,19.6,88,0.01,-RA,,0.08,26.0,WeatherDisplay:10.37,2013-12-22 14:46:00,
2013-12-22 15:51:00,46.5,42.8,29.78,WSW,240,10.0,18.4,87,0.01,-RA,,0.08,26.0,WeatherDisplay:10.37,2013-12-22 14:51:00,
2013-12-22 15:56:00,46.5,42.8,29.78,WSW,246,11.4,19.6,87,0.01,-RA,,0.08,19.0,WeatherDisplay:10.37,2013-12-22 14:56:00,
2013-12-22 16:01:00,46.6,42.6,29.78,WSW,242,13.3,19.6,86,0.01,FEW,,0.08,18.0,WeatherDisplay:10.37,2013-12-22 15:01:00,
2013-12-22 16:06:00,46.6,42.6,29.78,WSW,239,10.4,17.3,86,0.00,FEW,,0.08,9.0,WeatherDisplay:10.37,2013-12-22 15:06:00,
2013-12-22 16:11:00,46.6,42.6,29.78,WSW,248,10.3,17.3,86,0.00,FEW,,0.08,9.0,WeatherDisplay:10.37,2013-12-22 15:11:00,
2013-12-22 16:16:00,46.7,42.7,29.78,WSW,250,10.0,12.7,86,0.00,FEW,,0.08,7.0,WeatherDisplay:10.37,2013-12-22 15:16:00,
2013-12-22 16:21:00,46.8,43.1,29.79,West,259,12.9,17.3,87,0.00,FEW,,0.08,0.0,WeatherDisplay:10.37,2013-12-22 15:21:00,
2013-12-22 16:26:00,46.9,43.2,29.78,WSW,246,13.4,19.6,87,0.00,FEW,,0.08,0.0,WeatherDisplay:10.37,2013-12-22 15:26:00,
2013-12-22 16:31:00,46.9,43.2,29.79,WSW,237,10.4,13.8,87,0.00,CLR,,0.08,0.0,WeatherDisplay:10.37,2013-12-22 15:31:00,
2013-12-22 16:36:00,46.9,43.2,29.79,SW,235,10.4,16.1,87,0.00,CLR,,0.08,0.0,WeatherDisplay:10.37,2013-12-22 15:36:00,
2013-12-22 16:41:00,46.8,43.4,29.79,SW,232,11.2,15.0,88,0.00,CLR,,0.08,0.0,WeatherDisplay:10.37,2013-12-22 15:41:00,
2013-12-22 16:46:00,46.8,43.4,29.79,SW,225,10.5,17.3,88,0.00,CLR,,0.08,0.0,WeatherDisplay:10.37,2013-12-22 15:46:00,
2013-12-22 16:51:00,46.7,43.3,29.79,WSW,242,10.3,13.0,88,0.00,CLR,,0.08,0.0,WeatherDisplay:10.37,2013-12-22 15:51:00,
2013-12-22 16:56:00,46.6,43.5,29.79,WSW,243,10.3,15.0,89,0.00,CLR,,0.08,0.0,WeatherDisplay:10.37,2013-12-22 15:56:00,
2013-12-22 17:01:00,46.6,43.5,29.79,WSW,242,10.2,15.0,89,0.00,CLR,,0.08,0.0,WeatherDisplay:10.37,2013-12-22 16:01:00,
2013-12-22 17:06:00,46.6,43.5,29.79,SW,229,11.3,15.0,89,0.00,CLR,,0.08,0.0,WeatherDisplay:10.37,2013-12-22 16:06:00,
2013-12-22 17:11:00,46.6,43.8,29.79,SW,234,12.1,13.8,90,0.00,CLR,,0.08,0.0,WeatherDisplay:10.37,2013-12-22 16:11:00,
2013-12-22 17:16:00,46.6,43.8,29.79,WSW,248,9.5,14.0,90,0.00,CLR,,0.08,0.0,WeatherDisplay:10.37,2013-12-22 16:16:00,
2013-12-22 17:21:00,46.7,43.9,29.79,WSW,246,9.6,16.1,90,0.00,CLR,,0.08,0.0,WeatherDisplay:10.37,2013-12-22 16:21:00,
2013-12-22 17:26:00,46.8,44.0,29.79,SW,232,12.6,19.6,90,0.00,CLR,,0.08,0.0,WeatherDisplay:10.37,2013-12-22 16:26:00,
2013-12-22 17:31:00,47.0,44.5,29.79,WSW,247,10.9,13.8,91,0.00,CLR,,0.08,0.0,WeatherDisplay:10.37,2013-12-22 16:31:00,
2013-12-22 17:36:00,47.1,44.6,29.80,WSW,253,9.0,13.8,91,0.00,CLR,,0.08,0.0,WeatherDisplay:10.37,2013-12-22 16:36:00,
2013-12-22 17:41:00,47.1,44.6,29.80,WSW,238,12.2,16.1,91,0.00,CLR,,0.08,0.0,WeatherDisplay:10.37,2013-12-22 16:41:00,
2013-12-22 17:46:00,47.1,44.3,29.79,SW,236,11.5,16.1,90,0.00,CLR,,0.08,0.0,WeatherDisplay:10.37,2013-12-22 16:46:00,
2013-12-22 17:51:00,47.1,44.0,29.80,WSW,239,11.6,19.6,89,0.00,CLR,,0.08,0.0,WeatherDisplay:10.37,2013-12-22 16:51:00,
2013-12-22 17:56:00,47.0,43.9,29.80,WSW,246,14.7,18.4,89,0.00,CLR,,0.08,0.0,WeatherDisplay:10.37,2013-12-22 16:56:00,
2013-12-22 18:01:00,47.0,43.6,29.80,SW,223,10.3,15.0,88,0.00,SCT,,0.08,0.0,WeatherDisplay:10.37,2013-12-22 17:01:00,
2013-12-22 18:06:00,46.9,43.2,29.80,WSW,250,7.6,11.5,87,0.00,SCT,,0.08,0.0,WeatherDisplay:10.37,2013-12-22 17:06:00,
2013-12-22 18:11:00,46.8,43.1,29.80,WSW,245,11.4,19.6,87,0.00,SCT,,0.08,0.0,WeatherDisplay:10.37,2013-12-22 17:11:00,
2013-12-22 18:16:00,46.7,43.0,29.80,SW,223,12.5,17.3,87,0.00,SCT,,0.08,0.0,WeatherDisplay:10.37,2013-12-22 17:16:00,
2013-12-22 18:21:00,46.7,43.0,29.79,WSW,252,11.0,15.0,87,0.00,SCT,,0.08,0.0,WeatherDisplay:10.37,2013-12-22 17:21:00,
2013-12-22 18:26:00,46.7,43.0,29.80,WSW,243,10.0,15.0,87,0.00,SCT,,0.08,0.0,WeatherDisplay:10.37,2013-12-22 17:26:00,
2013-12-22 18:31:00,46.7,43.0,29.79,WSW,241,11.5,16.1,87,0.00,CLR,,0.08,0.0,WeatherDisplay:10.37,2013-12-22 17:31:00,
2013-12-22 18:36:00,46.7,43.0,29.79,WSW,238,13.4,16.1,87,0.00,CLR,,0.08,0.0,WeatherDisplay:10.37,2013-12-22 17:36:00,
2013-12-22 18:41:00,46.7,43.0,29.80,WSW,257,12.8,18.4,87,0.00,CLR,,0.08,0.0,WeatherDisplay:10.37,2013-12-22 17:41:00,
2013-12-22 18:46:00,46.6,42.9,29.79,WSW,239,7.9,13.8,87,0.00,CLR,,0.08,0.0,WeatherDisplay:10.37,2013-12-22 17:46:00,
2013-12-22 18:51:00,46.3,42.6,29.80,WSW,243,9.0,13.8,87,0.00,CLR,,0.08,0.0,WeatherDisplay:10.37,2013-12-22 17:51:00,
2013-12-22 18:56:00,46.2,42.5,29.80,WSW,238,5.8,12.7,87,0.00,CLR,,0.08,0.0,WeatherDisplay:10.37,2013-12-22 17:56:00,
2013-12-22 19:01:00,46.1,42.7,29.81,WSW,238,7.0,10.4,88,0.00,CLR,,0.08,0.0,WeatherDisplay:10.37,2013-12-22 18:01:00,
2013-12-22 19:06:00,46.0,42.6,29.81,SW,231,10.1,15.0,88,0.00,CLR,,0.08,0.0,WeatherDisplay:10.37,2013-12-22 18:06:00,
2013-12-22 19:11:00,46.0,42.6,29.81,WSW,253,10.6,15.0,88,0.00,CLR,,0.08,0.0,WeatherDisplay:10.37,2013-12-22 18:11:00,
2013-12-22 19:16:00,46.1,42.7,29.81,SW,233,11.1,15.0,88,0.00,CLR,,0.08,0.0,WeatherDisplay:10.37,2013-12-22 18:16:00,
2013-12-22 19:21:00,46.1,42.7,29.81,SW,232,13.5,19.6,88,0.00,CLR,,0.08,0.0,WeatherDisplay:10.37,2013-12-22 18:21:00,
2013-12-22 19:26:00,46.2,42.8,29.81,WSW,246,10.4,16.1,88,0.00,CLR,,0.08,0.0,WeatherDisplay:10.37,2013-12-22 18:26:00,
2013-12-22 19:31:00,46.2,42.8,29.82,WSW,238,9.6,16.1,88,0.00,CLR,,0.08,0.0,WeatherDisplay:10.37,2013-12-22 18:31:00,
2013-12-22 19:36:00,46.2,42.8,29.82,WSW,253,11.4,15.0,88,0.00,CLR,,0.08,0.0,WeatherDisplay:10.37,2013-12-22 18:36:00,
2013-12-22 19:41:00,46.2,42.8,29.81,WSW,242,12.3,17.3,88,0.00,CLR,,0.08,0.0,WeatherDisplay:10.37,2013-12-22 18:41:00,
2013-12-22 19:46:00,46.1,42.7,29.82,WSW,239,10.5,15.0,88,0.00,CLR,,0.08,0.0,WeatherDisplay:10.37,2013-12-22 18:46:00,
2013-12-22 19:51:00,46.0,42.6,29.82,WSW,242,9.6,16.1,88,0.00,CLR,,0.08,0.0,WeatherDisplay:10.37,2013-12-22 18:51:00,
2013-12-22 19:56:00,45.9,42.5,29.82,WSW,238,12.8,18.4,88,0.00,CLR,,0.08,0.0,WeatherDisplay:10.37,2013-12-22 18:56:00,
2013-12-22 20:01:00,45.8,42.4,29.82,SW,234,9.0,12.0,88,0.00,CLR,,0.08,0.0,WeatherDisplay:10.37,2013-12-22 19:01:00,
2013-12-22 20:06:00,45.7,42.3,29.82,WSW,246,11.7,15.0,88,0.00,CLR,,0.08,0.0,WeatherDisplay:10.37,2013-12-22 19:06:00,
2013-12-22 20:11:00,45.6,42.2,29.82,SW,232,7.8,12.0,88,0.00,CLR,,0.08,0.0,WeatherDisplay:10.37,2013-12-22 19:11:00,
2013-12-22 20:16:00,45.5,42.1,29.82,WSW,241,9.7,16.1,88,0.00,CLR,,0.08,0.0,WeatherDisplay:10.37,2013-12-22 19:16:00,
2013-12-22 20:21:00,45.5,42.1,29.82,WSW,241,13.5,19.6,88,0.00,CLR,,0.08,0.0,WeatherDisplay:10.37,2013-12-22 19:21:00,
2013-12-22 20:26:00,45.5,42.1,29.82,SW,236,11.3,17.3,88,0.00,CLR,,0.08,0.0,WeatherDisplay:10.37,2013-12-22 19:26:00,
2013-12-22 20:31:00,45.5,42.1,29.82,WSW,246,12.5,17.3,88,0.00,CLR,,0.08,0.0,WeatherDisplay:10.37,2013-12-22 19:31:00,
2013-12-22 20:36:00,45.5,42.1,29.83,SW,234,13.6,20.7,88,0.00,CLR,,0.08,0.0,WeatherDisplay:10.37,2013-12-22 19:36:00,
2013-12-22 20:41:00,45.5,42.1,29.82,WSW,244,12.3,19.6,88,0.00,CLR,,0.08,0.0,WeatherDisplay:10.37,2013-12-22 19:41:00,
2013-12-22 20:46:00,45.5,42.1,29.82,WSW,250,13.7,19.6,88,0.00,CLR,,0.08,0.0,WeatherDisplay:10.37,2013-12-22 19:46:00,
2013-12-22 20:51:00,45.6,42.2,29.83,WSW,240,13.1,15.0,88,0.00,CLR,,0.08,0.0,WeatherDisplay:10.37,2013-12-22 19:51:00,
2013-12-22 21:01:00,45.5,42.1,29.83,WSW,246,13.6,15.0,88,0.00,CLR,,0.08,0.0,WeatherDisplay:10.37,2013-12-22 20:01:00,
2013-12-22 21:06:00,45.3,41.9,29.83,WSW,244,10.3,16.1,88,0.00,CLR,,0.08,0.0,WeatherDisplay:10.37,2013-12-22 20:06:00,
2013-12-22 21:11:00,45.2,41.8,29.83,SW,236,10.8,17.3,88,0.00,CLR,,0.08,0.0,WeatherDisplay:10.37,2013-12-22 20:11:00,
2013-12-22 21:16:00,45.1,41.7,29.83,SW,234,10.6,19.6,88,0.00,CLR,,0.08,0.0,WeatherDisplay:10.37,2013-12-22 20:16:00,
2013-12-22 21:21:00,45.1,41.7,29.84,WSW,248,11.1,17.3,88,0.00,CLR,,0.08,0.0,WeatherDisplay:10.37,2013-12-22 20:21:00,
2013-12-22 21:26:00,45.1,42.0,29.84,WSW,238,10.3,16.0,89,0.00,CLR,,0.08,0.0,WeatherDisplay:10.37,2013-12-22 20:26:00,
2013-12-22 21:31:00,45.1,42.0,29.84,WSW,237,10.0,13.0,89,0.00,CLR,,0.08,0.0,WeatherDisplay:10.37,2013-12-22 20:31:00,
2013-12-22 21:37:00,45.1,42.0,29.84,WSW,240,12.1,13.8,89,0.00,CLR,,0.08,0.0,WeatherDisplay:10.37,2013-12-22 20:37:00,
2013-12-22 21:42:00,45.1,42.0,29.84,WSW,238,9.6,15.0,89,0.00,BKN,,0.08,0.0,WeatherDisplay:10.37,2013-12-22 20:42:00,
2013-12-22 21:47:00,45.1,42.0,29.84,WSW,243,10.0,13.8,89,0.00,BKN,,0.08,0.0,WeatherDisplay:10.37,2013-12-22 20:47:00,
2013-12-22 21:52:00,45.0,41.9,29.84,WSW,246,10.6,13.8,89,0.00,BKN,,0.08,0.0,WeatherDisplay:10.37,2013-12-22 20:52:00,
2013-12-22 21:57:00,45.0,41.9,29.84,WSW,241,8.4,15.0,89,0.00,BKN,,0.08,0.0,WeatherDisplay:10.37,2013-12-22 20:57:00,
2013-12-22 22:02:00,44.9,41.8,29.84,WSW,238,10.3,12.7,89,0.00,FEW,,0.08,0.0,WeatherDisplay:10.37,2013-12-22 21:02:00,
2013-12-22 22:07:00,44.9,42.1,29.84,SW,232,8.6,13.8,90,0.00,FEW,,0.08,0.0,WeatherDisplay:10.37,2013-12-22 21:07:00,
2013-12-22 22:12:00,44.8,42.0,29.84,SW,230,8.6,10.4,90,0.00,FEW,,0.08,0.0,WeatherDisplay:10.37,2013-12-22 21:12:00,
2013-12-22 22:17:00,44.6,41.8,29.85,WSW,239,7.8,8.1,90,0.00,FEW,,0.08,0.0,WeatherDisplay:10.37,2013-12-22 21:17:00,
2013-12-22 22:22:00,44.5,41.7,29.85,WSW,240,6.6,11.5,90,0.00,FEW,,0.08,0.0,WeatherDisplay:10.37,2013-12-22 21:22:00,
2013-12-22 22:27:00,44.4,41.6,29.85,WSW,246,8.4,10.4,90,0.00,FEW,,0.08,0.0,WeatherDisplay:10.37,2013-12-22 21:27:00,
2013-12-22 22:28:00,44.4,41.6,29.85,WSW,246,8.4,10.4,90,0.00,FEW,,0.08,0.0,WeatherDisplay:10.37,2013-12-22 21:28:00,
2013-12-22 22:33:00,44.4,41.6,29.85,WSW,249,7.6,11.5,90,0.00,CLR,,0.08,0.0,WeatherDisplay:10.37,2013-12-22 21:33:00,
2013-12-22 22:38:00,44.3,41.5,29.85,WSW,244,6.9,11.5,90,0.00,CLR,,0.08,0.0,WeatherDisplay:10.37,2013-12-22 21:38:00,
2013-12-22 22:43:00,44.2,41.4,29.86,SW,225,6.2,10.4,90,0.00,CLR,,0.08,0.0,WeatherDisplay:10.37,2013-12-22 21:43:00,
2013-12-22 22:48:00,44.1,41.6,29.86,SW,233,5.6,9.2,91,0.00,CLR,,0.08,0.0,WeatherDisplay:10.37,2013-12-22 21:48:00,
2013-12-22 22:53:00,44.0,41.5,29.86,WSW,240,7.3,12.7,91,0.00,CLR,,0.08,0.0,WeatherDisplay:10.37,2013-12-22 21:53:00,
2013-12-22 22:58:00,44.1,41.6,29.86,SW,235,7.3,10.0,91,0.00,CLR,,0.08,0.0,WeatherDisplay:10.37,2013-12-22 21:58:00,
2013-12-22 23:03:00,44.2,41.7,29.86,WSW,240,9.3,16.1,91,0.00,CLR,,0.08,0.0,WeatherDisplay:10.37,2013-12-22 22:03:00,
2013-12-22 23:08:00,44.2,41.7,29.86,WSW,241,7.4,15.0,91,0.00,CLR,,0.08,0.0,WeatherDisplay:10.37,2013-12-22 22:08:00,
2013-12-22 23:13:00,44.3,42.1,29.87,SW,235,8.9,15.0,92,0.00,CLR,,0.08,0.0,WeatherDisplay:10.37,2013-12-22 22:13:00,
2013-12-22 23:18:00,44.4,42.2,29.87,WSW,244,7.7,10.4,92,0.00,CLR,,0.08,0.0,WeatherDisplay:10.37,2013-12-22 22:18:00,
2013-12-22 23:23:00,44.4,41.9,29.87,SW,236,10.0,11.5,91,0.00,FEW,,0.08,0.0,WeatherDisplay:10.37,2013-12-22 22:23:00,
2013-12-22 23:28:00,44.3,41.8,29.87,WSW,248,7.9,12.0,91,0.00,FEW,,0.08,0.0,WeatherDisplay:10.37,2013-12-22 22:28:00,
2013-12-22 23:33:00,44.2,41.7,29.87,WSW,242,8.6,15.0,91,0.00,FEW,,0.08,0.0,WeatherDisplay:10.37,2013-12-22 22:33:00,
2013-12-22 23:38:00,44.2,41.7,29.87,WSW,244,7.7,11.5,91,0.00,FEW,,0.08,0.0,WeatherDisplay:10.37,2013-12-22 22:38:00,
2013-12-22 23:43:00,44.2,41.7,29.88,WSW,248,7.1,11.5,91,0.00,FEW,,0.08,0.0,WeatherDisplay:10.37,2013-12-22 22:43:00,
2013-12-22 23:48:00,44.2,41.4,29.88,WSW,253,7.9,9.2,90,0.00,FEW,,0.08,0.0,WeatherDisplay:10.37,2013-12-22 22:48:00,
2013-12-22 23:53:00,44.1,41.3,29.88,WSW,256,8.5,11.5,90,0.00,FEW,,0.08,0.0,WeatherDisplay:10.37,2013-12-22 22:53:00,
2013-12-22 23:58:00,44.1,41.3,29.88,WSW,248,6.1,8.1,90,0.00,FEW,,0.08,0.0,WeatherDisplay:10.37,2013-12-22 22:58:00,